Location: Treviso
(45.6669°N, 12.2430°E)
Time: 00:41:19
(UTC+02:00)

ISS - Pass Details

Date: 24 May 2017
Orbit: 402 x 408 km, 51.6° (Epoch: 30 May)

Event Time Altitude Azimuth Distance (km) Brightness Sun altitude
Rises 21:51:01 0° 215° (SW) 2,321 -0.1 -9.8°
Reaches altitude 10° 21:53:14 10° 204° (SSW) 1,464 -1.2 -10.1°
Maximum altitude 21:56:10 30° 141° (SE) 753 -3.0 -10.5°
Drops below altitude 10° 21:59:07 10° 77° (ENE) 1,470 -1.3 -10.8°
Sets 22:01:20 0° 67° (ENE) 2,333 -0.2 -11.1°
